| time (UTC) | temp F | wind direction | speed MPH | gust MPH | rain 1hr in | rain 24hr in | rain mn in | humidity % | barometer mb |
| 20260831132010 | 76 | 332 | 1.0 | 3.0 | 0.00 | 0.00 | 0.00 | 87 | 1011.7 |
| 20260831131010 | 76 | 113 | 0.0 | 1.0 | 0.00 | 0.00 | 0.00 | 88 | 1011.6 |
| 20260831130510 | 76 | 112 | 0.0 | 2.0 | 0.00 | 0.00 | 0.00 | 88 | 1011.8 |
| 20260831130010 | 76 | 113 | 0.0 | 2.0 | 0.00 | 0.00 | 0.00 | 88 | 1011.6 |
| 20260831125510 | 76 | 128 | 0.0 | 0.0 | 0.00 | 0.00 | 0.00 | 88 | 1011.5 |
| 20260831125010 | 75 | 138 | 0.0 | 2.0 | 0.00 | 0.00 | 0.00 | 88 | 1011.6 |
| 20260831124510 | 75 | 138 | 1.0 | 2.0 | 0.00 | 0.00 | 0.00 | 87 | 1011.3 |
| 20260831124010 | 75 | 138 | 0.0 | 1.0 | 0.00 | 0.00 | 0.00 | 87 | 1011.2 |
| 20260831123510 | 75 | 138 | 0.0 | 1.0 | 0.00 | 0.00 | 0.00 | 87 | 1011.4 |
| 20260831123010 | 75 | 138 | 0.0 | 1.0 | 0.00 | 0.00 | 0.00 | 87 | 1011.4 |
| 20260831122510 | 75 | 138 | 0.0 | 1.0 | 0.00 | 0.00 | 0.00 | 87 | 1011.1 |
| 20260831122010 | 75 | 138 | 0.0 | 1.0 | 0.00 | 0.00 | 0.00 | 86 | 1011.0 |
| 20260831121510 | 75 | 138 | 0.0 | 1.0 | 0.00 | 0.00 | 0.00 | 86 | 1010.8 |
| 20260831120010 | 75 | 138 | 1.0 | 2.0 | 0.00 | 0.00 | 0.00 | 85 | 1010.5 |
| 20260831115510 | 75 | 138 | 0.0 | 1.0 | 0.00 | 0.00 | 0.00 | 85 | 1010.3 |
| 20260831115010 | 75 | 138 | 0.0 | 1.0 | 0.00 | 0.00 | 0.00 | 85 | 1010.4 |
| 20260831114510 | 75 | 138 | 0.0 | 1.0 | 0.00 | 0.00 | 0.00 | 85 | 1010.2 |
| 20260831114010 | 75 | 138 | 0.0 | 0.0 | 0.00 | 0.00 | 0.00 | 85 | 1010.1 |
| 20260831113009 | 75 | 138 | 0.0 | 2.0 | 0.00 | 0.00 | 0.00 | 85 | 1010.0 |
| 20260831112509 | 75 | 138 | 0.0 | 2.0 | 0.00 | 0.00 | 0.00 | 85 | 1009.9 |
| 20260831112009 | 75 | 138 | 0.0 | 1.0 | 0.00 | 0.00 | 0.00 | 84 | 1009.8 |
| 20260831111509 | 75 | 138 | 0.0 | 1.0 | 0.00 | 0.00 | 0.00 | 84 | 1009.6 |
| 20260831111009 | 75 | 138 | 0.0 | 1.0 | 0.00 | 0.00 | 0.00 | 84 | 1009.6 |
| 20260831110009 | 75 | 138 | 0.0 | 2.0 | 0.00 | 0.00 | 0.00 | 84 | 1009.6 |
| 20260831105509 | 75 | 138 | 0.0 | 2.0 | 0.00 | 0.00 | 0.00 | 84 | 1009.6 |
| 20260831105009 | 75 | 138 | 0.0 | 3.0 | 0.00 | 0.00 | 0.00 | 84 | 1009.6 |
| 20260831104509 | 75 | 138 | 1.0 | 3.0 | 0.00 | 0.00 | 0.00 | 84 | 1009.5 |
| 20260831104009 | 75 | 146 | 0.0 | 3.0 | 0.00 | 0.00 | 0.00 | 84 | 1009.6 |
| 20260831103009 | 76 | 187 | 0.0 | 2.0 | 0.00 | 0.00 | 0.00 | 84 | 1009.6 |
| 20260831102509 | 76 | 187 | 0.0 | 1.0 | 0.00 | 0.00 | 0.00 | 83 | 1009.5 |
| 20260831102009 | 76 | 187 | 0.0 | 0.0 | 0.00 | 0.00 | 0.00 | 83 | 1009.5 |
| 20260831101510 | 76 | 187 | 0.0 | 0.0 | 0.00 | 0.00 | 0.00 | 83 | 1009.5 |
| 20260831101009 | 76 | 187 | 0.0 | 0.0 | 0.00 | 0.00 | 0.00 | 83 | 1009.5 |
| 20260831100509 | 76 | 187 | 0.0 | 0.0 | 0.00 | 0.00 | 0.00 | 82 | 1009.5 |
| 20260831095509 | 76 | 187 | 0.0 | 0.0 | 0.00 | 0.00 | 0.00 | 82 | 1009.3 |
| 20260831095009 | 76 | 187 | 0.0 | 0.0 | 0.00 | 0.00 | 0.00 | 82 | 1009.2 |
| 20260831094510 | 77 | 187 | 0.0 | 0.0 | 0.00 | 0.00 | 0.00 | 82 | 1009.2 |
| 20260831093509 | 77 | 187 | 0.0 | 0.0 | 0.00 | 0.00 | 0.00 | 82 | 1008.9 |
| 20260831093010 | 77 | 187 | 0.0 | 1.0 | 0.00 | 0.00 | 0.00 | 82 | 1008.9 |
| 20260831092509 | 77 | 187 | 0.0 | 2.0 | 0.00 | 0.00 | 0.00 | 81 | 1008.9 |
| 20260831091513 | 77 | 187 | 0.0 | 2.0 | 0.00 | 0.00 | 0.00 | 81 | 1008.9 |
| 20260831091009 | 77 | 187 | 0.0 | 3.0 | 0.00 | 0.00 | 0.00 | 81 | 1008.8 |
| 20260831090010 | 78 | 173 | 0.0 | 1.0 | 0.00 | 0.00 | 0.00 | 81 | 1008.8 |
| 20260831085509 | 78 | 173 | 0.0 | 2.0 | 0.00 | 0.00 | 0.00 | 81 | 1008.8 |
| 20260831085009 | 78 | 173 | 0.0 | 3.0 | 0.00 | 0.00 | 0.00 | 81 | 1008.7 |
| 20260831084510 | 78 | 173 | 1.0 | 3.0 | 0.00 | 0.00 | 0.00 | 81 | 1008.5 |
| 20260831083010 | 78 | 137 | 0.0 | 2.0 | 0.00 | 0.00 | 0.00 | 82 | 1008.4 |
| 20260831082510 | 78 | 128 | 0.0 | 2.0 | 0.00 | 0.00 | 0.00 | 82 | 1008.4 |
| 20260831082010 | 78 | 128 | 1.0 | 2.0 | 0.00 | 0.00 | 0.00 | 82 | 1008.3 |
| 20260831081510 | 78 | 146 | 0.0 | 3.0 | 0.00 | 0.00 | 0.00 | 82 | 1008.4 |
| 20260831081010 | 78 | 146 | 0.0 | 3.0 | 0.00 | 0.00 | 0.00 | 83 | 1008.3 |
| 20260831075510 | 78 | 143 | 0.0 | 3.0 | 0.00 | 0.00 | 0.00 | 83 | 1008.3 |
| 20260831074010 | 78 | 149 | 1.0 | 5.0 | 0.00 | 0.00 | 0.00 | 85 | 1008.4 |
| 20260831073510 | 77 | 158 | 1.0 | 3.0 | 0.00 | 0.00 | 0.00 | 85 | 1008.4 |
| 20260831073010 | 78 | 134 | 1.0 | 3.0 | 0.00 | 0.00 | 0.00 | 85 | 1008.4 |
| 20260831072510 | 78 | 182 | 1.0 | 3.0 | 0.00 | 0.00 | 0.00 | 85 | 1008.4 |
| 20260831072010 | 78 | 180 | 0.0 | 3.0 | 0.00 | 0.00 | 0.00 | 85 | 1008.4 |
| 20260831071010 | 78 | 209 | 0.0 | 2.0 | 0.00 | 0.00 | 0.00 | 86 | 1008.7 |
| 20260831070509 | 78 | 209 | 0.0 | 2.0 | 0.00 | 0.00 | 0.00 | 86 | 1008.7 |
| 20260831070009 | 78 | 209 | 1.0 | 2.0 | 0.00 | 0.00 | 0.00 | 86 | 1008.7 |
| 20260831065009 | 78 | 209 | 0.0 | 0.0 | 0.00 | 0.00 | 0.00 | 85 | 1008.8 |
| 20260831064509 | 79 | 209 | 0.0 | 0.0 | 0.00 | 0.00 | 0.00 | 85 | 1008.7 |
| 20260831064009 | 79 | 209 | 0.0 | 0.0 | 0.00 | 0.00 | 0.00 | 85 | 1008.7 |
| 20260831063509 | 79 | 209 | 0.0 | 0.0 | 0.00 | 0.00 | 0.00 | 85 | 1008.7 |
| 20260831063009 | 79 | 209 | 0.0 | 1.0 | 0.00 | 0.00 | 0.00 | 84 | 1008.7 |
| 20260831062509 | 79 | 209 | 0.0 | 1.0 | 0.00 | 0.00 | 0.00 | 85 | 1008.6 |
| 20260831062009 | 79 | 209 | 0.0 | 1.0 | 0.00 | 0.00 | 0.00 | 84 | 1008.6 |
| 20260831061009 | 79 | 209 | 0.0 | 1.0 | 0.00 | 0.00 | 0.00 | 84 | 1008.5 |
| 20260831060509 | 79 | 209 | 0.0 | 2.0 | 0.00 | 0.00 | 0.00 | 84 | 1008.4 |
| 20260831060010 | 80 | 209 | 1.0 | 2.0 | 0.00 | 0.00 | 0.00 | 84 | 1008.3 |
| 20260831055509 | 80 | 209 | 0.0 | 1.0 | 0.00 | 0.00 | 0.00 | 84 | 1008.2 |
| 20260831055009 | 80 | 209 | 0.0 | 1.0 | 0.00 | 0.00 | 0.00 | 84 | 1008.2 |
| 20260831054509 | 80 | 209 | 0.0 | 1.0 | 0.00 | 0.00 | 0.00 | 84 | 1008.2 |
| 20260831054009 | 80 | 209 | 0.0 | 2.0 | 0.00 | 0.00 | 0.00 | 84 | 1008.1 |
| 20260831053509 | 80 | 209 | 0.0 | 2.0 | 0.00 | 0.00 | 0.00 | 84 | 1008.1 |
| 20260831053009 | 80 | 209 | 0.0 | 0.0 | 0.00 | 0.00 | 0.00 | 84 | 1008.1 |
| 20260831052509 | 80 | 209 | 0.0 | 0.0 | 0.00 | 0.00 | 0.00 | 83 | 1007.8 |
| 20260831052009 | 80 | 209 | 0.0 | 0.0 | 0.00 | 0.00 | 0.00 | 83 | 1007.7 |
| 20260831051510 | 80 | 209 | 0.0 | 0.0 | 0.00 | 0.00 | 0.00 | 82 | 1007.7 |
| 20260831051009 | 80 | 209 | 0.0 | 0.0 | 0.00 | 0.00 | 0.00 | 82 | 1007.7 |
| 20260831050510 | 80 | 209 | 0.0 | 0.0 | 0.00 | 0.00 | 0.00 | 81 | 1007.7 |
| 20260831050010 | 80 | 209 | 0.0 | 0.0 | 0.00 | 0.00 | 0.00 | 81 | 1007.8 |
| 20260831045516 | 80 | 209 | 0.0 | 0.0 | 0.00 | 0.00 | 0.00 | 81 | 1007.8 |
| 20260831044510 | 81 | 209 | 0.0 | 0.0 | 0.00 | 0.00 | 0.00 | 81 | 1007.8 |
| 20260831044010 | 81 | 209 | 0.0 | 0.0 | 0.00 | 0.00 | 0.00 | 80 | 1007.8 |
| 20260831043510 | 81 | 209 | 0.0 | 0.0 | 0.00 | 0.00 | 0.00 | 80 | 1007.8 |
| 20260831043010 | 81 | 209 | 0.0 | 0.0 | 0.00 | 0.00 | 0.00 | 79 | 1007.8 |
| 20260831042510 | 81 | 209 | 0.0 | 0.0 | 0.00 | 0.00 | 0.00 | 79 | 1007.8 |
| 20260831042010 | 81 | 209 | 0.0 | 0.0 | 0.00 | 0.00 | 0.00 | 79 | 1007.9 |
| 20260831041009 | 81 | 208 | 0.0 | 0.0 | 0.00 | 0.00 | 0.00 | 79 | 1008.0 |
| 20260831040509 | 81 | 191 | 0.0 | 0.0 | 0.00 | 0.00 | 0.00 | 79 | 1008.1 |
| 20260831040009 | 81 | 191 | 0.0 | 0.0 | 0.00 | 0.00 | 0.00 | 79 | 1008.3 |
| 20260831035509 | 82 | 190 | 0.0 | 0.0 | 0.00 | 0.00 | 0.00 | 78 | 1008.4 |
| 20260831035009 | 82 | 190 | 0.0 | 0.0 | 0.00 | 0.00 | 0.00 | 78 | 1008.4 |
| 20260831034512 | 82 | 190 | 0.0 | 0.0 | 0.00 | 0.00 | 0.00 | 77 | 1008.4 |
| 20260831034009 | 82 | 191 | 0.0 | 0.0 | 0.00 | 0.00 | 0.00 | 77 | 1008.4 |
| 20260831033509 | 82 | 191 | 0.0 | 0.0 | 0.00 | 0.00 | 0.00 | 77 | 1008.4 |
| 20260831033009 | 82 | 191 | 0.0 | 0.0 | 0.00 | 0.00 | 0.00 | 76 | 1008.3 |
| 20260831032509 | 82 | 191 | 0.0 | 0.0 | 0.00 | 0.00 | 0.00 | 75 | 1008.4 |
| 20260831031508 | 83 | 189 | 0.0 | 0.0 | 0.00 | 0.00 | 0.00 | 75 | 1008.3 |
| 20260831031009 | 83 | 188 | 0.0 | 0.0 | 0.00 | 0.00 | 0.00 | 74 | 1008.4 |
| 20260831030509 | 83 | 194 | 0.0 | 0.0 | 0.00 | 0.00 | 0.00 | 74 | 1008.5 |
| 20260831030009 | 83 | 195 | 0.0 | 0.0 | 0.00 | 0.00 | 0.00 | 74 | 1008.6 |
| 20260831025509 | 83 | 195 | 0.0 | 0.0 | 0.00 | 0.00 | 0.00 | 73 | 1008.6 |
| 20260831025009 | 84 | 199 | 0.0 | 0.0 | 0.00 | 0.00 | 0.00 | 73 | 1008.6 |
| 20260831024009 | 84 | 205 | 0.0 | 0.0 | 0.00 | 0.00 | 0.00 | 72 | 1008.6 |
| 20260831023509 | 84 | 206 | 0.0 | 0.0 | 0.00 | 0.00 | 0.00 | 71 | 1008.5 |
| 20260831023010 | 84 | 207 | 0.0 | 0.0 | 0.00 | 0.00 | 0.00 | 70 | 1008.5 |
| 20260831022509 | 85 | 208 | 0.0 | 0.0 | 0.00 | 0.00 | 0.00 | 70 | 1008.4 |
| 20260831022009 | 85 | 208 | 0.0 | 0.0 | 0.00 | 0.00 | 0.00 | 70 | 1008.4 |
| 20260831021009 | 85 | 208 | 0.0 | 0.0 | 0.00 | 0.00 | 0.00 | 69 | 1008.3 |
| 20260831020509 | 85 | 207 | 0.0 | 0.0 | 0.00 | 0.00 | 0.00 | 69 | 1008.3 |
| 20260831015509 | 86 | 208 | 0.0 | 0.0 | 0.00 | 0.00 | 0.00 | 68 | 1008.2 |
| 20260831015009 | 86 | 208 | 0.0 | 0.0 | 0.00 | 0.00 | 0.00 | 67 | 1008.1 |
| 20260831014009 | 87 | 207 | 0.0 | 0.0 | 0.00 | 0.00 | 0.00 | 66 | 1007.9 |
| 20260831013509 | 87 | 208 | 0.0 | 0.0 | 0.00 | 0.00 | 0.00 | 65 | 1007.9 |
| 20260831013010 | 87 | 208 | 0.0 | 0.0 | 0.00 | 0.00 | 0.00 | 65 | 1007.9 |
| 20260831012509 | 88 | 208 | 0.0 | 1.0 | 0.00 | 0.00 | 0.00 | 64 | 1007.9 |
| 20260831012009 | 88 | 208 | 0.0 | 1.0 | 0.00 | 0.00 | 0.00 | 64 | 1007.9 |
| 20260831011510 | 88 | 208 | 0.0 | 0.0 | 0.00 | 0.00 | 0.00 | 63 | 1007.9 |
| 20260831011010 | 89 | 207 | 0.0 | 1.0 | 0.00 | 0.00 | 0.00 | 63 | 1007.8 |
| 20260831010510 | 89 | 208 | 0.0 | 2.0 | 0.00 | 0.00 | 0.00 | 62 | 1007.8 |
| 20260831005510 | 90 | 208 | 1.0 | 2.0 | 0.00 | 0.00 | 0.00 | 62 | 1007.8 |
| 20260831004510 | 90 | 208 | 0.0 | 2.0 | 0.00 | 0.00 | 0.00 | 60 | 1007.8 |
| 20260831004010 | 91 | 208 | 0.0 | 2.0 | 0.00 | 0.00 | 0.00 | 60 | 1007.8 |
| 20260831003510 | 91 | 209 | 1.0 | 2.0 | 0.00 | 0.00 | 0.00 | 60 | 1007.8 |
| 20260831003010 | 91 | 207 | 0.0 | 1.0 | 0.00 | 0.00 | 0.00 | 59 | 1007.7 |
| 20260831002010 | 91 | 208 | 0.0 | 1.0 | 0.00 | 0.00 | 0.00 | 59 | 1007.7 |
| 20260831001510 | 91 | 209 | 0.0 | 1.0 | 0.00 | 0.00 | 0.00 | 59 | 1007.7 |
| 20260831001010 | 91 | 208 | 0.0 | 1.0 | 0.00 | 0.00 | 0.00 | 59 | 1007.7 |
| 20260831000509 | 91 | 208 | 0.0 | 1.0 | 0.00 | 0.00 | 0.00 | 59 | 1007.6 |
| 20260831000010 | 91 | 208 | 0.0 | 1.0 | 0.00 | 0.00 | 0.00 | 59 | 1007.7 |
| 20260830235510 | 91 | 207 | 0.0 | 1.0 | 0.00 | 0.00 | 0.00 | 59 | 1007.7 |
| 20260830235010 | 91 | 207 | 0.0 | 3.0 | 0.00 | 0.00 | 0.00 | 59 | 1007.7 |
| 20260830234510 | 91 | 208 | 1.0 | 3.0 | 0.00 | 0.00 | 0.00 | 58 | 1007.7 |
| 20260830233510 | 91 | 126 | 1.0 | 3.0 | 0.00 | 0.00 | 0.00 | 59 | 1007.6 |
| 20260830232510 | 91 | 172 | 1.0 | 3.0 | 0.00 | 0.00 | 0.00 | 59 | 1007.6 |
| 20260830232009 | 91 | 202 | 1.0 | 3.0 | 0.00 | 0.00 | 0.00 | 58 | 1007.5 |
| 20260830231509 | 91 | 224 | 1.0 | 3.0 | 0.00 | 0.00 | 0.00 | 59 | 1007.6 |
| 20260830231009 | 91 | 220 | 1.0 | 5.0 | 0.00 | 0.00 | 0.00 | 58 | 1007.5 |
| 20260830230509 | 91 | 203 | 2.0 | 5.0 | 0.00 | 0.00 | 0.00 | 57 | 1007.4 |
| 20260830230009 | 91 | 192 | 2.0 | 6.0 | 0.00 | 0.00 | 0.00 | 57 | 1007.3 |
| 20260830225009 | 91 | 204 | 1.0 | 3.0 | 0.00 | 0.00 | 0.00 | 58 | 1007.4 |
| 20260830224509 | 91 | 211 | 1.0 | 3.0 | 0.00 | 0.00 | 0.00 | 58 | 1007.4 |
| 20260830223509 | 91 | 199 | 2.0 | 5.0 | 0.00 | 0.00 | 0.00 | 57 | 1007.4 |
| 20260830223009 | 91 | 214 | 1.0 | 5.0 | 0.00 | 0.00 | 0.00 | 57 | 1007.4 |
| 20260830222509 | 91 | 214 | 3.0 | 5.0 | 0.00 | 0.00 | 0.00 | 57 | 1007.3 |
| 20260830221509 | 91 | 215 | 2.0 | 3.0 | 0.00 | 0.00 | 0.00 | 56 | 1007.2 |
| 20260830221009 | 91 | 205 | 2.0 | 5.0 | 0.00 | 0.00 | 0.00 | 56 | 1007.1 |
| 20260830220008 | 92 | 198 | 2.0 | 5.0 | 0.00 | 0.00 | 0.00 | 56 | 1007.2 |
| 20260830215509 | 92 | 218 | 1.0 | 5.0 | 0.00 | 0.00 | 0.00 | 57 | 1007.2 |
| 20260830215009 | 92 | 208 | 3.0 | 5.0 | 0.00 | 0.00 | 0.00 | 56 | 1007.2 |
| 20260830214009 | 92 | 222 | 2.0 | 6.0 | 0.00 | 0.00 | 0.00 | 56 | 1007.1 |
| 20260830213509 | 92 | 146 | 2.0 | 7.0 | 0.00 | 0.00 | 0.00 | 55 | 1007.1 |
| 20260830213012 | 92 | 239 | 2.0 | 7.0 | 0.00 | 0.00 | 0.00 | 55 | 1007.2 |
| 20260830212508 | 92 | 213 | 1.0 | 6.0 | 0.00 | 0.00 | 0.00 | 58 | 1007.2 |
| 20260830211510 | 91 | 198 | 1.0 | 5.0 | 0.00 | 0.00 | 0.00 | 58 | 1007.4 |
| 20260830211009 | 91 | 211 | 2.0 | 5.0 | 0.00 | 0.00 | 0.00 | 57 | 1007.6 |
| 20260830210509 | 91 | 156 | 1.0 | 3.0 | 0.00 | 0.00 | 0.00 | 58 | 1007.7 |
| 20260830205509 | 90 | 187 | 1.0 | 7.0 | 0.00 | 0.00 | 0.00 | 58 | 1007.8 |
| 20260830205009 | 90 | 219 | 4.0 | 7.0 | 0.00 | 0.00 | 0.00 | 59 | 1007.8 |
| 20260830204009 | 90 | 294 | 2.0 | 3.0 | 0.00 | 0.00 | 0.00 | 59 | 1007.9 |
| 20260830203509 | 89 | 220 | 1.0 | 6.0 | 0.00 | 0.00 | 0.00 | 59 | 1007.9 |
| 20260830203010 | 89 | 217 | 2.0 | 6.0 | 0.00 | 0.00 | 0.00 | 58 | 1007.8 |
| 20260830202509 | 89 | 209 | 3.0 | 6.0 | 0.00 | 0.00 | 0.00 | 59 | 1007.8 |
| 20260830202010 | 89 | 208 | 1.0 | 3.0 | 0.00 | 0.00 | 0.00 | 59 | 1007.7 |
| 20260830201510 | 89 | 214 | 1.0 | 3.0 | 0.00 | 0.00 | 0.00 | 60 | 1007.7 |
| 20260830201010 | 89 | 92 | 0.0 | 5.0 | 0.00 | 0.00 | 0.00 | 62 | 1007.8 |
| 20260830200510 | 89 | 194 | 1.0 | 7.0 | 0.00 | 0.00 | 0.00 | 61 | 1008.0 |
| 20260830200010 | 88 | 209 | 2.0 | 7.0 | 0.00 | 0.00 | 0.00 | 61 | 1008.2 |
| 20260830195510 | 88 | 203 | 1.0 | 3.0 | 0.00 | 0.00 | 0.00 | 61 | 1008.2 |
| 20260830195010 | 88 | 204 | 1.0 | 3.0 | 0.00 | 0.00 | 0.00 | 61 | 1008.3 |
| 20260830194510 | 88 | 212 | 1.0 | 5.0 | 0.00 | 0.00 | 0.00 | 61 | 1008.3 |
| 20260830194010 | 89 | 214 | 2.0 | 5.0 | 0.00 | 0.00 | 0.00 | 60 | 1008.4 |
| 20260830193510 | 89 | 212 | 2.0 | 5.0 | 0.00 | 0.00 | 0.00 | 59 | 1008.4 |
| 20260830193010 | 89 | 218 | 2.0 | 7.0 | 0.00 | 0.00 | 0.00 | 59 | 1008.4 |
| 20260830192010 | 89 | 212 | 4.0 | 9.0 | 0.00 | 0.00 | 0.00 | 57 | 1008.3 |
| 20260830191509 | 89 | 209 | 3.0 | 9.0 | 0.00 | 0.00 | 0.00 | 57 | 1008.3 |
| 20260830191010 | 89 | 185 | 3.0 | 7.0 | 0.00 | 0.00 | 0.00 | 57 | 1008.0 |
| 20260830190510 | 89 | 228 | 3.0 | 6.0 | 0.00 | 0.00 | 0.00 | 56 | 1008.1 |
| 20260830185510 | 89 | 211 | 3.0 | 6.0 | 0.00 | 0.00 | 0.00 | 58 | 1008.1 |
| 20260830185010 | 89 | 179 | 2.0 | 5.0 | 0.00 | 0.00 | 0.00 | 56 | 1008.2 |
| 20260830184010 | 90 | 217 | 2.0 | 5.0 | 0.00 | 0.00 | 0.00 | 54 | 1008.1 |
| 20260830183510 | 90 | 213 | 2.0 | 5.0 | 0.00 | 0.00 | 0.00 | 54 | 1008.2 |
| 20260830182509 | 90 | 204 | 3.0 | 7.0 | 0.00 | 0.00 | 0.00 | 53 | 1008.3 |
| 20260830182009 | 91 | 217 | 4.0 | 7.0 | 0.00 | 0.00 | 0.00 | 53 | 1008.4 |
| 20260830181509 | 91 | 182 | 1.0 | 6.0 | 0.00 | 0.00 | 0.00 | 52 | 1008.6 |
| 20260830181009 | 91 | 226 | 2.0 | 6.0 | 0.00 | 0.00 | 0.00 | 52 | 1008.7 |
| 20260830180509 | 91 | 198 | 3.0 | 6.0 | 0.00 | 0.00 | 0.00 | 54 | 1008.7 |
| 20260830180009 | 90 | 210 | 3.0 | 6.0 | 0.00 | 0.00 | 0.00 | 56 | 1008.7 |
| 20260830175509 | 90 | 228 | 3.0 | 6.0 | 0.00 | 0.00 | 0.00 | 55 | 1008.7 |
| 20260830174509 | 91 | 233 | 4.0 | 10.0 | 0.00 | 0.00 | 0.00 | 54 | 1008.7 |
| 20260830173509 | 90 | 239 | 4.0 | 12.0 | 0.00 | 0.00 | 0.00 | 55 | 1008.7 |
| 20260830173009 | 90 | 175 | 2.0 | 6.0 | 0.00 | 0.00 | 0.00 | 57 | 1008.7 |
| 20260830171508 | 89 | 221 | 2.0 | 12.0 | 0.00 | 0.00 | 0.00 | 57 | 1008.8 |
| 20260830171009 | 89 | 186 | 3.0 | 12.0 | 0.00 | 0.00 | 0.00 | 57 | 1008.8 |
| 20260830170509 | 88 | 183 | 2.0 | 12.0 | 0.00 | 0.00 | 0.00 | 58 | 1008.8 |
| 20260830170009 | 88 | 188 | 3.0 | 6.0 | 0.00 | 0.00 | 0.00 | 58 | 1008.8 |
| 20260830165509 | 88 | 200 | 2.0 | 6.0 | 0.00 | 0.00 | 0.00 | 58 | 1008.8 |
| 20260830165009 | 87 | 208 | 3.0 | 5.0 | 0.00 | 0.00 | 0.00 | 59 | 1008.9 |
| 20260830164509 | 87 | 194 | 3.0 | 12.0 | 0.00 | 0.00 | 0.00 | 60 | 1008.9 |
| 20260830164009 | 86 | 213 | 5.0 | 12.0 | 0.00 | 0.00 | 0.00 | 61 | 1008.9 |
| 20260830163509 | 86 | 198 | 2.0 | 7.0 | 0.00 | 0.00 | 0.00 | 65 | 1008.8 |
| 20260830163009 | 85 | 172 | 2.0 | 7.0 | 0.00 | 0.00 | 0.00 | 65 | 1008.9 |
| 20260830162509 | 84 | 168 | 3.0 | 7.0 | 0.00 | 0.00 | 0.00 | 66 | 1008.9 |
| 20260830162009 | 84 | 180 | 2.0 | 5.0 | 0.00 | 0.00 | 0.00 | 67 | 1009.0 |
| 20260830161009 | 83 | 150 | 3.0 | 9.0 | 0.00 | 0.00 | 0.00 | 66 | 1009.0 |
| 20260830160510 | 83 | 136 | 1.0 | 6.0 | 0.00 | 0.00 | 0.00 | 66 | 1009.0 |
| 20260830155509 | 83 | 160 | 2.0 | 7.0 | 0.00 | 0.00 | 0.00 | 67 | 1008.9 |
| 20260830155009 | 82 | 156 | 3.0 | 7.0 | 0.00 | 0.00 | 0.00 | 68 | 1009.0 |
| 20260830154510 | 82 | 145 | 2.0 | 6.0 | 0.00 | 0.00 | 0.00 | 69 | 1009.0 |
| 20260830154009 | 82 | 178 | 2.0 | 6.0 | 0.00 | 0.00 | 0.00 | 70 | 1009.1 |
| 20260830153509 | 81 | 173 | 2.0 | 7.0 | 0.00 | 0.00 | 0.00 | 70 | 1009.0 |
| 20260830152509 | 81 | 156 | 3.0 | 10.0 | 0.00 | 0.00 | 0.00 | 70 | 1009.0 |
| 20260830152010 | 80 | 144 | 3.0 | 10.0 | 0.00 | 0.00 | 0.00 | 71 | 1009.0 |
| 20260830150510 | 79 | 175 | 4.0 | 12.0 | 0.00 | 0.00 | 0.00 | 72 | 1009.0 |
| 20260830150010 | 79 | 138 | 2.0 | 6.0 | 0.00 | 0.00 | 0.00 | 73 | 1009.0 |
| 20260830145510 | 79 | 157 | 3.0 | 5.0 | 0.00 | 0.00 | 0.00 | 74 | 1009.0 |
| 20260830145010 | 78 | 146 | 2.0 | 3.0 | 0.00 | 0.00 | 0.00 | 74 | 1009.0 |
| 20260830144510 | 78 | 164 | 1.0 | 3.0 | 0.00 | 0.00 | 0.00 | 74 | 1009.0 |
| 20260830144010 | 78 | 157 | 1.0 | 3.0 | 0.00 | 0.00 | 0.00 | 75 | 1009.0 |
| 20260830143510 | 78 | 171 | 1.0 | 3.0 | 0.00 | 0.00 | 0.00 | 75 | 1009.0 |
| 20260830143010 | 78 | 175 | 0.0 | 1.0 | 0.00 | 0.00 | 0.00 | 75 | 1009.1 |
| 20260830142510 | 78 | 176 | 0.0 | 2.0 | 0.00 | 0.00 | 0.00 | 74 | 1009.1 |
| 20260830142010 | 78 | 176 | 0.0 | 3.0 | 0.00 | 0.00 | 0.00 | 74 | 1008.9 |
| 20260830141510 | 77 | 173 | 1.0 | 5.0 | 0.00 | 0.00 | 0.00 | 74 | 1009.0 |
| 20260830140510 | 77 | 165 | 1.0 | 3.0 | 0.00 | 0.00 | 0.00 | 74 | 1009.0 |
| 20260830140010 | 77 | 165 | 1.0 | 3.0 | 0.00 | 0.00 | 0.00 | 74 | 1008.9 |
| 20260830135510 | 77 | 173 | 1.0 | 3.0 | 0.00 | 0.00 | 0.00 | 74 | 1009.0 |
| 20260830134510 | 77 | 136 | 0.0 | 3.0 | 0.00 | 0.00 | 0.00 | 74 | 1008.9 |
| 20260830134009 | 77 | 141 | 1.0 | 2.0 | 0.00 | 0.00 | 0.00 | 74 | 1008.9 |
| 20260830133509 | 77 | 141 | 0.0 | 3.0 | 0.00 | 0.00 | 0.00 | 74 | 1008.9 |
| 20260830133009 | 77 | 141 | 0.0 | 3.0 | 0.00 | 0.00 | 0.00 | 74 | 1008.9 |